Lid_Strength_Index
-0 0 0 -0 -0 0 0 -0 -1 -1 -1 -1 -1 -1 -1 -0 -1 -1 -0 -0 -0 -0
0 0 0 -0 -0 -0 -1 -0 -1 -1 -1 -1 -1 -1 -1 -0 -0 -1 -0 -0 -0 0
0 -0 -0 -0 -0 -1 -1 -1 -1 -1 -1 -1 -1 -1 -1 -0 -0 -0 -0 -0 -0 -0
0 0 -0 0 -0 -0 -1 -1 -1 -1 -1 -1 -0 -1 -0 -1 -0 0 0 -0 0 0
0 0 0 0 -0 -0 -0 -1 -1 -1 -1 -0 -1 -1 -0 0 -0 0 0 0 0 1
1 0 1 0 -0 -0 -0 -0 -0 -0 -0 -0 -0 -0 -0 -0 0 -0 0 0 0 0
1 1 0 0 0 -0 -0 -0 -0 -0 -0 -0 -0 -0 -0 -0 0 -0 0 -0 -0 0
1 0 0 0 0 -0 -0 -0 -0 -0 -0 -0 -0 0 -0 -0 0 0 0 0 -0 -0
1 1 1 0 0 0 0 0 0 0 0 0 0 3 3 1 0 0 0 1 0 0
1 1 1 1 1 1 1 0 1 0 0 0 0 4 5 3 0 0 0 0 0 1
1 1 1 1 1 1 1 1 1 1 0 0 0 5 6 5 -0 0 0 0 0 0
1 1 1 1 1 1 1 1 1 1 1 1 1 6 7 5 0 1 1 0 0 0
1 1 1 1 1 1 1 1 1 1 0 2 1 6 9 6 1 1 1 0 0 3
1 1 1 1 1 1 1 1 1 1 1 0 1 1 10 10 1 1 1 1 1 0